Lebanon, NH

6:30 AM EDT on March 28, 2017 (GMT -0400)
Lebanon Municipal

Weather History for KLEB - February, 2013

Change the Weather History Date:

Thursday, February 28, 2013

  Actual Average Record
Temperature  
Mean Temperature 36 °F -  
Max Temperature 41 °F 37 °F 55 °F (1998)
Min Temperature 30 °F 14 °F -23 °F (1934)
Degree Days  
Heating Degree Days 30    
Moisture  
Dew Point 31 °F    
Average Humidity 87    
Maximum Humidity 93    
Minimum Humidity 70    
Precipitation  
Precipitation 0.02 in - - ()
Sea Level Pressure  
Sea Level Pressure 29.59 in    
Wind  
Wind Speed 0 mph (South)    
Max Wind Speed 5 mph    
Max Gust Speed -    
Visibility 8 miles    
Events Rain , Snow    
Averages and records for this station are not official NWS values.
T = Trace of Precipitation, MM = Missing Value Source: NWS Daily Summary

Daily Weather History Graph

Daily Weather History Graph

Search for Another Location

Airport or City:

Trip Planner

Search our weather history database for the weather conditions in past years. The results will help you decide how hot, cold, wet, or windy it might be!

Date:

Astronomy

Feb. 28, 2013 Rise Set
Actual Time 6:27 AM EST 5:36 PM EST
Civil Twilight 5:58 AM EST 6:05 PM EST
Nautical Twilight 5:25 AM EST 6:38 PM EST
Astronomical Twilight 4:51 AM EST 7:12 PM EST
Moon 9:09 PM EST 7:27 AM EST
Length of Visible Light 12h 07m
Length of Day
11h 09m
Waning Gibbous, 91% of the Moon is Illuminated
Feb 28
Waning Gibbous
Mar 4
Last Quarter
Mar 11
New
Mar 19
First Quarter
Mar 27
Full

Hourly Weather History & Observations

Time (EST) Temp. Windchill Dew Point Humidity Pressure Visibility Wind Dir Wind Speed Gust Speed Precip Events Conditions
12:04 AM 32.0 °F - 30.2 °F 93% 29.62 in 3.0 mi Calm Calm - 0.00 in Snow Light Snow
12:11 AM 32.0 °F - 30.2 °F 93% 29.62 in 2.5 mi Calm Calm - 0.00 in Snow Light Snow
12:18 AM 32.0 °F - 30.2 °F 93% 29.62 in 3.0 mi Calm Calm - 0.00 in Snow Light Snow
12:33 AM 32.0 °F - 30.2 °F 93% 29.61 in 5.0 mi Calm Calm - 0.00 in   Overcast
12:53 AM 32.0 °F - 30.0 °F 92% 29.63 in 5.0 mi Calm Calm - 0.00 in   Overcast
1:32 AM 32.0 °F - 30.2 °F 93% 29.59 in 7.0 mi Calm Calm - N/A   Overcast
2:53 AM 32.0 °F - 28.9 °F 88% 29.60 in 10.0 mi Calm Calm - N/A   Overcast
3:51 AM 32.0 °F 28.7 °F 30.2 °F 93% 29.57 in 2.5 mi South 3.5 mph - 0.00 in Snow Light Snow
3:53 AM 32.0 °F 28.7 °F 30.0 °F 92% 29.60 in 3.0 mi South 3.5 mph - 0.00 in Snow Light Snow
4:10 AM 32.0 °F 27.5 °F 28.4 °F 87% 29.58 in 4.0 mi South 4.6 mph - 0.00 in Snow Light Snow
4:53 AM 32.0 °F - 28.9 °F 88% 29.60 in 10.0 mi Calm Calm - 0.00 in   Overcast
5:20 AM 32.0 °F - 28.4 °F 87% 29.58 in 10.0 mi Calm Calm - N/A   Overcast
5:36 AM 30.2 °F - 28.4 °F 93% 29.58 in 10.0 mi Calm Calm - 0.01 in   Mostly Cloudy
5:53 AM 30.0 °F 26.5 °F 28.0 °F 92% 29.61 in 10.0 mi SSE 3.5 mph - 0.01 in   Overcast
6:53 AM 30.9 °F - 28.9 °F 92% 29.62 in 10.0 mi Calm Calm - N/A   Overcast
7:53 AM 33.1 °F - 28.9 °F 85% 29.62 in 10.0 mi Calm Calm - N/A   Overcast
8:07 AM 33.8 °F - 30.2 °F 87% 29.60 in 10.0 mi Calm Calm - N/A   Overcast
8:21 AM 33.8 °F - 30.2 °F 87% 29.59 in 10.0 mi Calm Calm - N/A   Overcast
9:48 AM 35.6 °F - 30.2 °F 81% 29.59 in 10.0 mi Calm Calm - N/A   Mostly Cloudy
9:53 AM 36.0 °F - 30.0 °F 79% 29.61 in 10.0 mi Calm Calm - N/A   Scattered Clouds
10:49 AM 37.4 °F - 30.2 °F 75% 29.59 in 10.0 mi Calm Calm - N/A   Overcast
10:53 AM 37.0 °F - 30.9 °F 79% 29.61 in 10.0 mi Calm Calm - N/A   Overcast
11:43 AM 37.4 °F - 32.0 °F 81% 29.58 in 10.0 mi Calm Calm - N/A   Overcast
11:50 AM 37.4 °F - 32.0 °F 81% 29.58 in 10.0 mi Calm Calm - N/A   Overcast
11:53 AM 37.9 °F - 32.0 °F 79% 29.60 in 10.0 mi Calm Calm - N/A   Overcast
12:53 PM 39.9 °F - 32.0 °F 73% 29.58 in 10.0 mi Calm Calm - N/A   Overcast
1:53 PM 41.0 °F - 32.0 °F 70% 29.57 in 10.0 mi Calm Calm - N/A   Overcast
2:53 PM 41.0 °F - 32.0 °F 70% 29.57 in 10.0 mi Calm Calm - N/A   Overcast
4:53 PM 39.0 °F 36.8 °F 33.1 °F 79% 29.56 in 10.0 mi South 3.5 mph - 0.00 in Rain Light Rain
5:05 PM 37.4 °F - 33.8 °F 87% 29.54 in 10.0 mi Calm Calm - 0.00 in Rain Light Rain
5:30 PM 37.4 °F - 35.6 °F 93% 29.54 in 10.0 mi Calm Calm - 0.00 in Rain Light Rain
5:53 PM 37.0 °F - 34.0 °F 89% 29.57 in 10.0 mi Calm Calm - 0.00 in Rain Light Rain
6:53 PM 35.1 °F - 33.1 °F 92% 29.57 in 8.0 mi Calm Calm - 0.01 in   Overcast
7:18 PM 37.4 °F - 33.8 °F 87% 29.55 in 10.0 mi Calm Calm - N/A   Overcast
7:28 PM 35.6 °F - 33.8 °F 93% 29.55 in 10.0 mi Calm Calm - N/A   Overcast
7:53 PM 37.0 °F - 34.0 °F 89% 29.57 in 10.0 mi Calm Calm - N/A   Overcast
8:38 PM 35.6 °F - 33.8 °F 93% 29.55 in 8.0 mi Calm Calm - N/A   Overcast
8:53 PM 35.1 °F - 33.1 °F 92% 29.57 in 7.0 mi Calm Calm - N/A   Overcast
9:53 PM 34.0 °F - 32.0 °F 92% 29.57 in 5.0 mi Calm Calm - N/A   Overcast
10:53 PM 34.0 °F - 32.0 °F 92% 29.57 in 6.0 mi Calm Calm - N/A   Overcast
11:53 PM 35.1 °F - 32.0 °F 89% 29.57 in 6.0 mi Calm Calm - N/A   Overcast